Notices

What's New in latest Release from April 7th, 2021:

- Updated Glossary, including Speed of Maximum Gust, and Total Hourly Precipitation

- Updated national and regional climate services offices contacts and prices information

- Addition of station inventory lists for 1981-2010, 1971-2000, and 1961-1990 Normals.

If you haven't already, please take our survey and provide feedback about our website: https://eccc.sondage-survey.ca/f/LanguageSelection.aspx?s=442ca660-fcf1-47c0-95a9-59707d6fd709

Hourly Data Report for April 20, 2018

CLYDE RIVER A
NUNAVUT
Current Station Operator: NAVCAN

70°29'09.000" N
68°31'01.000" W
26.50 m
2400804
71090
YCY

Download Data

Hourly Data (April 2018)
Hourly Data Report for April 20, 2018
TIME
LST
Temp Definition
°C
Dew Point Definition
°C
Rel Hum Definition
%
Precip. Amount Definition
mm

Wind Dir Definition
10's deg

Wind Spd Definition
km/h
Visibility Definition
km
Stn Press Definition
kPa
Hmdx Definition


Wind Chill Definition


Weather Definition


00:00 -15.2 -18.2 78 0.0 6 5 16.1 101.30   -19 LegendNANA
01:00 -14.5 -17.4 79 0.0 LegendMM 4 16.1 101.26   -17 LegendNANA
02:00 -16.1 -18.5 82 0.0 LegendMM 4 16.1 101.24   -19 LegendNANA
03:00 -13.7 -17.4 74 0.0 28 8 16.1 101.23   -19 LegendNANA
04:00 -14.4 -17.4 79 0.0 5 5 16.1 101.20   -18 LegendNANA
05:00 -10.4 -14.7 71 0.0 30 13 16.1 101.20   -17 LegendNANA
06:00 -10.3 -14.7 71 0.0 29 5 16.1 101.22   -13 LegendNANA
07:00 -7.0 -12.7 64 0.0 29 5 16.1 101.23   -10 LegendNANA
08:00 -9.2 -13.4 72 0.0 25 8 16.1 101.24   -14 LegendNANA
09:00 -7.2 -11.3 73 0.0 27 5 16.1 101.24   -10 LegendNANA
10:00 -6.6 -10.2 76 0.0 LegendMM 4 16.1 101.23   -9 LegendNANA
11:00 -4.5 -8.6 73 0.0 35 11 16.1 101.25   -9 LegendNANA
12:00 -4.1 -7.7 76 0.0 33 11 16.1 101.26   -9 LegendNANA
13:00 -5.0 -9.0 74 0.0 34 15 16.1 101.33   -11 LegendNANA
14:00 -5.3 -9.3 73 0.0 34 11 16.1 101.38   -10 LegendNANA
15:00 -5.4 -9.3 74 0.0 33 21 16.1 101.45   -12 LegendNANA
16:00 -5.1 -9.6 71 0.0 35 11 16.1 101.55   -10 LegendNANA
17:00 -7.6 -11.0 77 0.0 32 9 16.1 101.62   -12 LegendNANA
18:00 -8.8 -12.2 77 0.0 26 5 16.1 101.67   -12 LegendNANA
19:00 -9.5 -12.4 80 0.0 27 5 16.1 101.70   -12 LegendNANA
20:00 -13.7 -15.7 85 0.0   0 16.1 101.72     LegendNANA
21:00 -13.5 -15.9 82 0.0 29 5 16.1 101.75   -17 LegendNANA
22:00 -14.7 -16.4 87 0.0 26 4 16.1 101.73   -18 LegendNANA
23:00 -15.2 -16.7 89 0.0 LegendMM 4 16.1 101.71   -18 LegendNANA

Notes on Data Quality.

Legend

  • E = Estimated
  • M = Missing
  • NA = Not Available*
  • [empty] = Indicates an unobserved value
Date modified: